x

South Uist Range (03023) Weather Station

10:00 - Thu 25th Dec 2014 All times are GMT.

  • Wind
    6mph
  • Ar Temp 37°f
  • Sea Pressure 1025mb
  • South Uist Range
  • South Uist Range

More Historic Weather Station data

Upgrade to MSW Pro to gain access to the past 30 days of data for over 8000 Wavebouys and Weather Stations around the globe.

Join Pro

Comparision Forecast

View Surf forecast
   
Qui 12/25 10:00 6
mph
1025mb 37f
9:00 3
mph
1024mb 37f
8:00 2
mph
1023mb 39f
7:00 6
mph
1022mb 39f
6:00 3
mph
1021mb 40f
5:00 7
mph
1020mb 40f
4:00 5
mph
1020mb 41f
3:00 9
mph
1019mb 42f
2:00 9
mph
1018mb 43f
1:00 7
mph
1017mb 42f
12:00 9
mph
1017mb 42f
Qua 12/24 11:00 6
mph
1016mb 43f
10:00 8
mph
1015mb 44f
9:00 13
mph
1014mb 43f
8:00 15
mph
1013mb 45f
7:00 17 30 mph 1012mb 45f
6:00 19
mph
1011mb 46f
5:00 19 31 mph 1010mb 46f
4:00 19 31 mph 1009mb 46f
3:00 23 45 mph 1008mb 45f
2:00 26 45 mph 1006mb 46f
1:00 32 53 mph 1005mb 46f
12:00 32 44 mph 1004mb 46f
11:00 32 45 mph 1003mb 46f
10:00 34 48 mph 1002mb 46f
9:00 33 54 mph 1001mb 45f
8:00 34 47 mph 1001mb 46f
7:00 33 47 mph 1000mb 46f
6:00 34 54 mph 1000mb 43f
5:00 37 53 mph 1000mb 44f
4:00 32 53 mph 1000mb 45f
3:00 33 47 mph 1000mb 45f
2:00 33 49 mph 1000mb 44f
1:00 32 45 mph 1000mb 44f
12:00 28 46 mph 1000mb 42f
Ter 12/23 11:00 26 45 mph 1001mb 42f
10:00 24 47 mph 1000mb 42f
9:00 34 47 mph 1001mb 40f
8:00 23 36 mph 1000mb 42f
7:00 26 37 mph 1000mb 44f
6:00 22 31 mph 1001mb 43f
5:00 22 37 mph 1001mb 43f
4:00 24 33 mph 1001mb 42f
3:00 13 33 mph 1001mb 44f
2:00 22 29 mph 1002mb 44f
1:00 15 33 mph 1002mb 44f
12:00 22 31 mph 1002mb 45f
11:00 15 36 mph 1002mb 43f
10:00 24 32 mph 1001mb 44f
9:00 25 36 mph 1001mb 44f
8:00 24 36 mph 1001mb 44f
7:00 25 36 mph 1000mb 45f
6:00 28 37 mph 1000mb 45f
5:00 25 38 mph 1000mb 44f
4:00 23 44 mph 1000mb 43f
3:00 28 46 mph 1000mb 45f
2:00 34 45 mph 999mb 44f
1:00 31 48 mph 999mb 45f
12:00 34 48 mph 999mb 44f
Seg 12/22 11:00 29 54 mph 999mb 45f
10:00 30 45 mph 999mb 46f
9:00 32 51 mph 999mb 44f
8:00 30 49 mph 1000mb 45f
7:00 33 46 mph 1000mb 45f
6:00 32 44 mph 999mb 46f
5:00 30 46 mph 999mb 46f
4:00 29 40 mph 999mb 46f
3:00 29 41 mph 999mb 46f
2:00 31 45 mph 999mb 46f
1:00 30 45 mph 999mb 47f
12:00 31 39 mph 999mb 46f
11:00 29 43 mph 1000mb 43f
10:00 30 43 mph 999mb 46f
9:00 28 40 mph 999mb 45f
8:00 29 41 mph 999mb 45f
7:00 31 46 mph 998mb 46f
6:00 32 43 mph 998mb 46f
5:00 32 45 mph 998mb 46f
4:00 31 48 mph 998mb 46f
3:00 32 46 mph 998mb 47f
2:00 32 46 mph 998mb 47f
1:00 30 41 mph 998mb 47f
12:00 31 41 mph 999mb 47f
Dom 12/21 11:00 32 41 mph 999mb 48f
10:00 30 44 mph 999mb 48f
9:00 33 40 mph 999mb 48f
8:00 26 39 mph 1000mb 49f
7:00 29 38 mph 1000mb 49f
6:00 26 39 mph 1000mb 48f
5:00 33 43 mph 1000mb 47f
4:00 28 40 mph 1000mb 50f
3:00 30 39 mph 1000mb 50f
2:00 29 39 mph 1001mb 50f
1:00 28 37 mph 1002mb 50f
12:00 28 39 mph 1003mb 50f
11:00 28 36 mph 1004mb 50f